Year,Month,Day,Hour,Minute,Value (Times are PST for temperature in C)
2018,10,17,00,00,9.10
2018,10,17,00,01,9.10
2018,10,17,00,02,9.10
2018,10,17,00,03,9.00
2018,10,17,00,04,9.00
2018,10,17,00,05,9.00
2018,10,17,00,06,9.10
2018,10,17,00,07,9.10
2018,10,17,00,08,9.10
2018,10,17,00,09,9.10
2018,10,17,00,10,9.10
2018,10,17,00,11,9.10
2018,10,17,00,12,9.10
2018,10,17,00,13,9.10
2018,10,17,00,14,9.00
2018,10,17,00,15,9.00
2018,10,17,00,16,9.00
2018,10,17,00,17,9.00
2018,10,17,00,18,8.90
2018,10,17,00,19,8.90
2018,10,17,00,20,8.90
2018,10,17,00,21,8.90
2018,10,17,00,22,8.90
2018,10,17,00,23,8.90
2018,10,17,00,24,8.80
2018,10,17,00,25,8.80
2018,10,17,00,26,8.80
2018,10,17,00,27,8.80
2018,10,17,00,28,8.80
2018,10,17,00,29,8.80
2018,10,17,00,30,8.80
2018,10,17,00,31,8.80
2018,10,17,00,32,8.90
2018,10,17,00,33,8.90
2018,10,17,00,34,8.90
2018,10,17,00,35,8.90
2018,10,17,00,36,8.90
2018,10,17,00,37,8.90
2018,10,17,00,38,8.90
2018,10,17,00,39,8.90
2018,10,17,00,40,8.90
2018,10,17,00,41,8.90
2018,10,17,00,42,8.90
2018,10,17,00,43,8.90
2018,10,17,00,44,8.90
2018,10,17,00,45,8.90
2018,10,17,00,46,8.90
2018,10,17,00,47,8.90
2018,10,17,00,48,8.90
2018,10,17,00,49,8.90
2018,10,17,00,50,8.90
2018,10,17,00,51,8.90
2018,10,17,00,52,8.90
2018,10,17,00,53,8.90
2018,10,17,00,54,8.90
2018,10,17,00,55,8.90
2018,10,17,00,56,8.90
2018,10,17,00,57,8.90
2018,10,17,00,58,8.90
2018,10,17,00,59,8.90
2018,10,17,01,00,8.90
2018,10,17,01,01,8.90
2018,10,17,01,02,8.90
2018,10,17,01,03,8.90
2018,10,17,01,04,8.90
2018,10,17,01,05,8.90
2018,10,17,01,06,8.90
2018,10,17,01,07,8.90
2018,10,17,01,08,8.90
2018,10,17,01,09,8.90
2018,10,17,01,10,8.90
2018,10,17,01,11,8.90
2018,10,17,01,12,8.90
2018,10,17,01,13,8.90
2018,10,17,01,14,8.90
2018,10,17,01,15,8.90
2018,10,17,01,16,8.90
2018,10,17,01,17,8.90
2018,10,17,01,18,8.80
2018,10,17,01,19,8.80
2018,10,17,01,20,8.80
2018,10,17,01,21,8.80
2018,10,17,01,22,8.80
2018,10,17,01,23,8.90
2018,10,17,01,24,8.90
2018,10,17,01,25,8.90
2018,10,17,01,26,8.90
2018,10,17,01,27,8.90
2018,10,17,01,28,8.90
2018,10,17,01,29,8.90
2018,10,17,01,30,8.90
2018,10,17,01,31,8.90
2018,10,17,01,32,8.90
2018,10,17,01,33,8.90
2018,10,17,01,34,8.90
2018,10,17,01,35,8.90
2018,10,17,01,36,8.90
2018,10,17,01,37,8.90
2018,10,17,01,38,8.90
2018,10,17,01,39,8.90
2018,10,17,01,40,8.90
2018,10,17,01,41,8.90
2018,10,17,01,42,8.90
2018,10,17,01,43,8.90
2018,10,17,01,44,8.90
2018,10,17,01,45,8.90
2018,10,17,01,46,8.90
2018,10,17,01,47,8.90
2018,10,17,01,48,8.90
2018,10,17,01,49,8.90
2018,10,17,01,50,8.90
2018,10,17,01,51,8.90
2018,10,17,01,52,8.90
2018,10,17,01,53,8.90
2018,10,17,01,54,8.90
2018,10,17,01,55,8.90
2018,10,17,01,56,9.00
2018,10,17,01,57,9.00
2018,10,17,01,58,9.00
2018,10,17,01,59,9.00
2018,10,17,02,00,9.00
2018,10,17,02,01,8.90
2018,10,17,02,02,8.90
2018,10,17,02,03,8.80
2018,10,17,02,04,8.80
2018,10,17,02,05,8.80
2018,10,17,02,06,8.80
2018,10,17,02,07,8.70
2018,10,17,02,08,8.70
2018,10,17,02,09,8.70
2018,10,17,02,10,8.70
2018,10,17,02,11,8.70
2018,10,17,02,12,8.70
2018,10,17,02,13,8.70
2018,10,17,02,14,8.70
2018,10,17,02,15,8.70
2018,10,17,02,16,8.70
2018,10,17,02,17,8.70
2018,10,17,02,18,8.70
2018,10,17,02,19,8.70
2018,10,17,02,20,8.70
2018,10,17,02,21,8.60
2018,10,17,02,22,8.60
2018,10,17,02,23,8.60
2018,10,17,02,24,8.50
2018,10,17,02,25,8.50
2018,10,17,02,26,8.40
2018,10,17,02,27,8.40
2018,10,17,02,28,8.40
2018,10,17,02,29,8.40
2018,10,17,02,30,8.30
2018,10,17,02,31,8.30
2018,10,17,02,32,8.30
2018,10,17,02,33,8.30
2018,10,17,02,34,8.30
2018,10,17,02,35,8.30
2018,10,17,02,36,8.30
2018,10,17,02,37,8.30
2018,10,17,02,38,8.30
2018,10,17,02,39,8.30
2018,10,17,02,40,8.30
2018,10,17,02,41,8.30
2018,10,17,02,42,8.30
2018,10,17,02,43,8.30
2018,10,17,02,44,8.30
2018,10,17,02,45,8.20
2018,10,17,02,46,8.20
2018,10,17,02,47,8.20
2018,10,17,02,48,8.20
2018,10,17,02,49,8.20
2018,10,17,02,50,8.20
2018,10,17,02,51,8.20
2018,10,17,02,52,8.20
2018,10,17,02,53,8.20
2018,10,17,02,54,8.20
2018,10,17,02,55,8.20
2018,10,17,02,56,8.20
2018,10,17,02,57,8.20
2018,10,17,02,58,8.20
2018,10,17,02,59,8.20
2018,10,17,03,00,8.20
2018,10,17,03,01,8.20
2018,10,17,03,02,8.20
2018,10,17,03,03,8.10
2018,10,17,03,04,8.10
2018,10,17,03,05,8.10
2018,10,17,03,06,8.10
2018,10,17,03,07,8.10
2018,10,17,03,08,8.10
2018,10,17,03,09,8.10
2018,10,17,03,10,8.10
2018,10,17,03,11,8.10
2018,10,17,03,12,8.10
2018,10,17,03,13,8.10
2018,10,17,03,14,8.10
2018,10,17,03,15,8.10
2018,10,17,03,16,8.10
2018,10,17,03,17,8.10
2018,10,17,03,18,8.10
2018,10,17,03,19,8.10
2018,10,17,03,20,8.10
2018,10,17,03,21,8.10
2018,10,17,03,22,8.10
2018,10,17,03,23,8.10
2018,10,17,03,24,8.10
2018,10,17,03,25,8.10
2018,10,17,03,26,8.10
2018,10,17,03,27,8.10
2018,10,17,03,28,8.10
2018,10,17,03,29,8.10
2018,10,17,03,30,8.10
2018,10,17,03,31,8.10
2018,10,17,03,32,8.10
2018,10,17,03,33,8.10
2018,10,17,03,34,8.10
2018,10,17,03,35,8.10
2018,10,17,03,36,8.10
2018,10,17,03,37,8.10
2018,10,17,03,38,8.10
2018,10,17,03,39,8.10
2018,10,17,03,40,8.10
2018,10,17,03,41,8.10
2018,10,17,03,42,8.10
2018,10,17,03,43,8.10
2018,10,17,03,44,8.10
2018,10,17,03,45,8.10
2018,10,17,03,46,8.10
2018,10,17,03,47,8.10
2018,10,17,03,48,8.10
2018,10,17,03,49,8.10
2018,10,17,03,50,8.10
2018,10,17,03,51,8.10
2018,10,17,03,52,8.10
2018,10,17,03,53,8.10
2018,10,17,03,54,8.10
2018,10,17,03,55,8.10
2018,10,17,03,56,8.10
2018,10,17,03,57,8.10
2018,10,17,03,58,8.00
2018,10,17,03,59,8.00
2018,10,17,04,00,8.00
2018,10,17,04,01,8.00
2018,10,17,04,02,8.00
2018,10,17,04,03,8.00
2018,10,17,04,04,8.00
2018,10,17,04,05,8.00
2018,10,17,04,06,8.00
2018,10,17,04,07,8.00
2018,10,17,04,08,8.00
2018,10,17,04,09,8.00
2018,10,17,04,10,8.00
2018,10,17,04,11,8.00
2018,10,17,04,12,8.00
2018,10,17,04,13,8.10
2018,10,17,04,14,8.10
2018,10,17,04,15,8.00
2018,10,17,04,16,8.10
2018,10,17,04,17,8.10
2018,10,17,04,18,8.10
2018,10,17,04,19,8.10
2018,10,17,04,20,8.00
2018,10,17,04,21,8.00
2018,10,17,04,22,8.00
2018,10,17,04,23,8.00
2018,10,17,04,24,8.00
2018,10,17,04,25,8.00
2018,10,17,04,26,8.00
2018,10,17,04,27,8.00
2018,10,17,04,28,8.00
2018,10,17,04,29,8.00
2018,10,17,04,30,8.00
2018,10,17,08,11,7.80
2018,10,17,08,12,7.80
2018,10,17,08,13,7.90
2018,10,17,08,14,7.90
2018,10,17,08,15,7.90
2018,10,17,08,16,7.90
2018,10,17,08,17,7.90
2018,10,17,08,18,8.00
2018,10,17,08,19,8.00
2018,10,17,08,20,8.00
2018,10,17,08,21,8.00
2018,10,17,08,22,8.10
2018,10,17,08,23,8.10
2018,10,17,08,24,8.10
2018,10,17,08,25,8.10
2018,10,17,08,26,8.10
2018,10,17,08,27,8.10
2018,10,17,08,28,8.10
2018,10,17,08,29,8.10
2018,10,17,08,30,8.10
2018,10,17,08,31,8.10
2018,10,17,08,32,8.10
2018,10,17,08,33,8.20
2018,10,17,08,34,8.20
2018,10,17,08,35,8.20
2018,10,17,08,36,8.20
2018,10,17,08,37,8.30
2018,10,17,08,38,8.30
2018,10,17,08,39,8.30
2018,10,17,08,40,8.30
2018,10,17,08,41,8.40
2018,10,17,08,42,8.40
2018,10,17,08,43,8.40
2018,10,17,08,44,8.50
2018,10,17,08,45,8.50
2018,10,17,08,46,8.50
2018,10,17,08,47,8.60
2018,10,17,08,48,8.60
2018,10,17,08,49,8.70
2018,10,17,08,50,8.70
2018,10,17,08,51,8.70
2018,10,17,08,52,8.80
2018,10,17,08,53,8.80
2018,10,17,08,54,8.90
2018,10,17,08,55,8.90
2018,10,17,08,56,9.00
2018,10,17,08,57,9.00
2018,10,17,08,58,9.10
2018,10,17,08,59,9.10
2018,10,17,09,00,9.20
2018,10,17,09,01,9.20
2018,10,17,09,02,9.30
2018,10,17,09,03,9.40
2018,10,17,09,04,9.50
2018,10,17,09,05,9.60
2018,10,17,09,06,9.70
2018,10,17,09,07,9.80
2018,10,17,09,08,9.90
2018,10,17,09,09,10.00
2018,10,17,09,10,10.00
2018,10,17,09,11,10.10
2018,10,17,09,12,10.10
2018,10,17,09,13,10.10
2018,10,17,09,14,10.10
2018,10,17,09,15,10.10
2018,10,17,09,16,10.20
2018,10,17,09,17,10.20
2018,10,17,09,18,10.20
2018,10,17,09,19,10.20
2018,10,17,09,20,10.20
2018,10,17,09,21,10.20
2018,10,17,09,22,10.30
2018,10,17,09,23,10.30
2018,10,17,09,24,10.30
2018,10,17,09,25,10.40
2018,10,17,09,26,10.40
2018,10,17,09,27,10.50
2018,10,17,09,28,10.50
2018,10,17,09,29,10.60
2018,10,17,09,30,10.60
2018,10,17,09,31,10.70
2018,10,17,09,32,10.70
2018,10,17,09,33,10.70
2018,10,17,09,34,10.80
2018,10,17,09,35,10.80
2018,10,17,09,36,10.90
2018,10,17,09,37,10.90
2018,10,17,09,38,11.00
2018,10,17,09,39,11.00
2018,10,17,09,40,11.10
2018,10,17,09,41,11.20
2018,10,17,09,42,11.20
2018,10,17,09,43,11.30
2018,10,17,09,44,11.40
2018,10,17,09,45,11.40
2018,10,17,09,46,11.50
2018,10,17,09,47,11.60
2018,10,17,09,48,11.70
2018,10,17,09,49,11.70
2018,10,17,09,50,11.80
2018,10,17,09,51,11.80
2018,10,17,09,52,11.90
2018,10,17,09,53,12.00
2018,10,17,09,54,12.00
2018,10,17,09,55,12.10
2018,10,17,09,56,12.20
2018,10,17,09,57,12.20
2018,10,17,09,58,12.30
2018,10,17,09,59,12.40
2018,10,17,10,00,12.50
2018,10,17,10,01,12.60
2018,10,17,10,02,12.80
2018,10,17,10,03,12.90
2018,10,17,10,04,13.10
2018,10,17,10,05,13.20
2018,10,17,10,06,13.30
2018,10,17,10,07,13.50
2018,10,17,10,08,13.60
2018,10,17,10,09,13.70
2018,10,17,10,10,13.90
2018,10,17,10,11,14.00
2018,10,17,10,12,14.10
2018,10,17,10,13,14.20
2018,10,17,10,14,14.30
2018,10,17,10,15,14.30
2018,10,17,10,16,14.40
2018,10,17,10,17,14.50
2018,10,17,10,18,14.50
2018,10,17,10,19,14.60
2018,10,17,10,20,14.70
2018,10,17,10,21,14.80
2018,10,17,10,22,14.80
2018,10,17,10,23,14.80
2018,10,17,10,24,14.90
2018,10,17,10,25,15.00
2018,10,17,10,26,15.00
2018,10,17,10,27,15.10
2018,10,17,10,28,15.10
2018,10,17,10,29,15.10
2018,10,17,10,30,15.20
2018,10,17,10,31,15.20
2018,10,17,10,32,15.20
2018,10,17,10,33,15.20
2018,10,17,10,34,15.20
2018,10,17,10,35,15.20
2018,10,17,10,36,15.20
2018,10,17,10,37,15.30
2018,10,17,10,38,15.30
2018,10,17,10,39,15.30
2018,10,17,10,40,15.30
2018,10,17,10,41,15.30
2018,10,17,10,42,15.40
2018,10,17,10,43,15.40
2018,10,17,10,44,15.40
2018,10,17,10,45,15.40
2018,10,17,10,46,15.40
2018,10,17,10,47,15.50
2018,10,17,10,48,15.50
2018,10,17,10,49,15.50
2018,10,17,10,50,15.50
2018,10,17,10,51,15.50
2018,10,17,10,52,15.50
2018,10,17,10,53,15.60
2018,10,17,10,54,15.60
2018,10,17,10,55,15.60
2018,10,17,10,56,15.60
2018,10,17,10,57,15.60
2018,10,17,10,58,15.70
2018,10,17,10,59,15.70
2018,10,17,11,00,15.70
2018,10,17,11,01,15.70
2018,10,17,11,02,15.70
2018,10,17,11,03,15.70
2018,10,17,11,04,15.70
2018,10,17,11,05,15.80
2018,10,17,11,06,15.80
2018,10,17,11,07,15.80
2018,10,17,11,08,15.80
2018,10,17,11,09,15.80
2018,10,17,11,10,15.80
2018,10,17,11,11,15.80
2018,10,17,11,12,15.90
2018,10,17,11,13,15.90
2018,10,17,11,14,15.90
2018,10,17,11,15,15.90
2018,10,17,11,16,15.90
2018,10,17,11,17,15.90
2018,10,17,11,18,15.90
2018,10,17,11,19,15.90
2018,10,17,11,20,15.90
2018,10,17,11,21,15.90
2018,10,17,11,22,16.00
2018,10,17,11,23,16.00
2018,10,17,11,24,16.00
2018,10,17,11,25,16.00
2018,10,17,11,26,16.10
2018,10,17,11,27,16.10
2018,10,17,11,28,16.10
2018,10,17,11,29,16.10
2018,10,17,11,30,16.10
2018,10,17,11,31,16.20
2018,10,17,11,32,16.20
2018,10,17,11,33,16.20
2018,10,17,11,34,16.20
2018,10,17,11,35,16.30
2018,10,17,11,36,16.30
2018,10,17,11,37,16.30
2018,10,17,11,38,16.30
2018,10,17,11,39,16.30
2018,10,17,11,40,16.30
2018,10,17,11,41,16.30
2018,10,17,11,42,16.40
2018,10,17,11,43,16.40
2018,10,17,11,44,16.40
2018,10,17,11,45,16.50
2018,10,17,11,46,16.50
2018,10,17,11,47,16.50
2018,10,17,11,48,16.60
2018,10,17,11,49,16.60
2018,10,17,11,50,16.60
2018,10,17,11,51,16.60
2018,10,17,11,52,16.70
2018,10,17,11,53,16.70
2018,10,17,11,54,16.70
2018,10,17,11,55,16.70
2018,10,17,11,56,16.80
2018,10,17,11,57,16.80
2018,10,17,11,58,16.80
2018,10,17,11,59,16.80
2018,10,17,12,00,16.80
2018,10,17,12,01,16.80
2018,10,17,12,02,16.80
2018,10,17,12,03,16.80
2018,10,17,12,04,16.80
2018,10,17,12,05,16.80
2018,10,17,12,06,16.90
2018,10,17,12,07,16.90
2018,10,17,12,08,16.90
2018,10,17,12,09,16.90
2018,10,17,12,10,16.90
2018,10,17,12,11,16.90
2018,10,17,12,12,16.90
2018,10,17,12,13,16.90
2018,10,17,12,14,16.90
2018,10,17,12,15,16.90
2018,10,17,12,16,16.90
2018,10,17,12,17,16.90
2018,10,17,12,18,16.90
2018,10,17,12,19,16.90
2018,10,17,12,20,16.90
2018,10,17,12,21,16.90
2018,10,17,12,22,16.90
2018,10,17,12,23,16.90
2018,10,17,12,24,16.90
2018,10,17,12,25,16.90
2018,10,17,12,26,16.90
2018,10,17,12,27,16.90
2018,10,17,12,28,16.90
2018,10,17,12,29,16.90
2018,10,17,12,30,16.90
2018,10,17,12,31,16.90
2018,10,17,12,32,16.90
2018,10,17,12,33,16.90
2018,10,17,12,34,16.90
2018,10,17,12,35,16.90
2018,10,17,12,36,16.90
2018,10,17,12,37,16.90
2018,10,17,12,38,16.80
2018,10,17,12,39,16.80
2018,10,17,12,40,16.80
2018,10,17,12,41,16.70
2018,10,17,12,42,16.70
2018,10,17,12,43,16.70
2018,10,17,12,44,16.70
2018,10,17,12,45,16.70
2018,10,17,12,46,16.70
2018,10,17,12,47,16.70
2018,10,17,12,48,16.70
2018,10,17,12,49,16.70
2018,10,17,12,50,16.70
2018,10,17,12,51,16.80
2018,10,17,12,52,16.80
2018,10,17,12,53,16.80
2018,10,17,12,54,16.80
2018,10,17,12,55,16.80
2018,10,17,12,56,16.80
2018,10,17,12,57,16.80
2018,10,17,12,58,16.90
2018,10,17,12,59,16.90
2018,10,17,13,00,16.90
2018,10,17,13,01,17.00
2018,10,17,13,02,17.00
2018,10,17,13,03,17.10
2018,10,17,13,04,17.10
2018,10,17,13,05,17.10
2018,10,17,13,06,17.10
2018,10,17,13,07,17.10
2018,10,17,13,08,17.10
2018,10,17,13,09,17.10
2018,10,17,13,10,17.20
2018,10,17,13,11,17.20
2018,10,17,13,12,17.20
2018,10,17,13,13,17.20
2018,10,17,13,14,17.20
2018,10,17,13,15,17.30
2018,10,17,13,16,17.30
2018,10,17,13,17,17.30
2018,10,17,13,18,17.30
2018,10,17,13,19,17.30
2018,10,17,13,20,17.30
2018,10,17,13,21,17.40
2018,10,17,13,22,17.40
2018,10,17,13,23,17.40
2018,10,17,13,24,17.40
2018,10,17,13,25,17.40
2018,10,17,13,26,17.40
2018,10,17,13,27,17.40
2018,10,17,13,28,17.50
2018,10,17,13,29,17.50
2018,10,17,13,30,17.50
2018,10,17,13,31,17.60
2018,10,17,13,32,17.60
2018,10,17,13,33,17.60
2018,10,17,13,34,17.60
2018,10,17,13,35,17.60
2018,10,17,13,36,17.60
2018,10,17,13,37,17.60
2018,10,17,13,38,17.60
2018,10,17,13,39,17.60
2018,10,17,13,40,17.60
2018,10,17,13,41,17.70
2018,10,17,13,42,17.70
2018,10,17,13,43,17.70
2018,10,17,13,44,17.80
2018,10,17,13,45,17.80
2018,10,17,13,46,17.80
2018,10,17,13,47,17.80
2018,10,17,13,48,17.80
2018,10,17,13,49,17.90
2018,10,17,13,50,17.90
2018,10,17,13,51,17.90
2018,10,17,13,52,18.00
2018,10,17,13,53,18.00
2018,10,17,13,54,18.00
2018,10,17,13,55,18.00
2018,10,17,13,56,18.00
2018,10,17,13,57,18.10
2018,10,17,13,58,18.10
2018,10,17,13,59,18.10
2018,10,17,14,00,18.10
2018,10,17,14,01,18.10
2018,10,17,14,02,18.10
2018,10,17,14,03,18.20
2018,10,17,14,04,18.20
2018,10,17,14,05,18.30
2018,10,17,14,06,18.30
2018,10,17,14,07,18.40
2018,10,17,14,08,18.40
2018,10,17,14,09,18.50
2018,10,17,14,10,18.50
2018,10,17,14,11,18.50
2018,10,17,14,12,18.60
2018,10,17,14,13,18.60
2018,10,17,14,14,18.60
2018,10,17,14,15,18.60
2018,10,17,14,16,18.60
2018,10,17,14,17,18.70
2018,10,17,14,18,18.70
2018,10,17,14,19,18.70
2018,10,17,14,20,18.70
2018,10,17,14,21,18.70
2018,10,17,14,22,18.70
2018,10,17,14,23,18.70
2018,10,17,14,24,18.80
2018,10,17,14,25,18.80
2018,10,17,14,26,18.80
2018,10,17,14,27,18.80
2018,10,17,14,28,18.80
2018,10,17,14,29,18.80
2018,10,17,14,30,18.80
2018,10,17,14,31,18.80
2018,10,17,14,32,18.80
2018,10,17,14,33,18.80
2018,10,17,14,34,18.90
2018,10,17,14,35,18.90
2018,10,17,14,36,18.90
2018,10,17,14,37,18.90
2018,10,17,14,38,18.90
2018,10,17,14,39,19.00
2018,10,17,14,40,19.00
2018,10,17,14,41,19.00
2018,10,17,14,42,19.00
2018,10,17,14,43,19.10
2018,10,17,14,44,19.10
2018,10,17,14,45,19.10
2018,10,17,14,46,19.10
2018,10,17,14,47,19.10
2018,10,17,14,48,19.20
2018,10,17,14,49,19.20
2018,10,17,14,50,19.20
2018,10,17,14,51,19.20
2018,10,17,14,52,19.20
2018,10,17,14,53,19.20
2018,10,17,14,54,19.20
2018,10,17,14,55,19.10
2018,10,17,14,56,19.10
2018,10,17,14,57,19.00
2018,10,17,14,58,19.00
2018,10,17,14,59,19.00
2018,10,17,15,00,19.00
2018,10,17,15,01,19.00
2018,10,17,15,02,19.00
2018,10,17,15,03,19.00
2018,10,17,15,04,19.00
2018,10,17,15,05,19.10
2018,10,17,15,06,19.10
2018,10,17,15,07,19.20
2018,10,17,15,08,19.20
2018,10,17,15,09,19.20
2018,10,17,15,10,19.30
2018,10,17,15,11,19.30
2018,10,17,15,12,19.30
2018,10,17,15,13,19.30
2018,10,17,15,14,19.30
2018,10,17,15,15,19.40
2018,10,17,15,16,19.40
2018,10,17,15,17,19.40
2018,10,17,15,18,19.40
2018,10,17,15,19,19.50
2018,10,17,15,20,19.50
2018,10,17,15,21,19.50
2018,10,17,15,22,19.50
2018,10,17,15,23,19.50
2018,10,17,15,24,19.50
2018,10,17,15,25,19.50
2018,10,17,15,26,19.40
2018,10,17,15,27,19.40
2018,10,17,15,28,19.40
2018,10,17,15,29,19.40
2018,10,17,15,30,19.40
2018,10,17,15,31,19.30
2018,10,17,15,32,19.30
2018,10,17,15,33,19.30
2018,10,17,15,34,19.20
2018,10,17,15,35,19.20
2018,10,17,15,36,19.20
2018,10,17,15,37,19.20
2018,10,17,15,38,19.20
2018,10,17,15,39,19.30
2018,10,17,15,40,19.30
2018,10,17,15,41,19.30
2018,10,17,15,42,19.30
2018,10,17,15,43,19.30
2018,10,17,15,44,19.30
2018,10,17,15,45,19.20
2018,10,17,15,46,19.20
2018,10,17,15,47,19.20
2018,10,17,15,48,19.20
2018,10,17,15,49,19.20
2018,10,17,15,50,19.20
2018,10,17,15,51,19.10
2018,10,17,15,52,18.90
2018,10,17,15,53,18.70
2018,10,17,15,54,18.50
2018,10,17,15,55,18.30
2018,10,17,15,56,18.00
2018,10,17,15,57,17.80
2018,10,17,15,58,17.60
2018,10,17,15,59,17.50
2018,10,17,16,00,17.30
2018,10,17,16,01,17.20
2018,10,17,16,02,17.10
2018,10,17,16,03,17.00
2018,10,17,16,04,16.80
2018,10,17,16,05,16.70
2018,10,17,16,06,16.60
2018,10,17,16,07,16.50
2018,10,17,16,08,16.40
2018,10,17,16,09,16.30
2018,10,17,16,10,16.30
2018,10,17,16,11,16.20
2018,10,17,16,12,16.20
2018,10,17,16,13,16.20
2018,10,17,16,14,16.10
2018,10,17,16,15,16.10
2018,10,17,16,16,16.00
2018,10,17,16,17,15.90
2018,10,17,16,18,15.90
2018,10,17,16,19,15.80
2018,10,17,16,20,15.80
2018,10,17,16,21,15.70
2018,10,17,16,22,15.70
2018,10,17,16,23,15.70
2018,10,17,16,24,15.60
2018,10,17,16,25,15.60
2018,10,17,16,26,15.60
2018,10,17,16,27,15.50
2018,10,17,16,28,15.50
2018,10,17,16,29,15.50
2018,10,17,16,30,15.50
2018,10,17,16,31,15.50
2018,10,17,16,32,15.50
2018,10,17,16,33,15.50
2018,10,17,16,34,15.50
2018,10,17,16,35,15.50
2018,10,17,16,36,15.50
2018,10,17,16,37,15.40
2018,10,17,16,38,15.40
2018,10,17,16,39,15.40
2018,10,17,16,40,15.30
2018,10,17,16,41,15.30
2018,10,17,16,42,15.20
2018,10,17,16,43,15.20
2018,10,17,16,44,15.10
2018,10,17,16,45,15.10
2018,10,17,16,46,15.00
2018,10,17,16,47,15.00
2018,10,17,16,48,14.90
2018,10,17,16,49,14.90
2018,10,17,16,50,14.80
2018,10,17,16,51,14.80
2018,10,17,16,52,14.70
2018,10,17,16,53,14.60
2018,10,17,16,54,14.60
2018,10,17,16,55,14.60
2018,10,17,16,56,14.50
2018,10,17,16,57,14.50
2018,10,17,16,58,14.50
2018,10,17,16,59,14.40
2018,10,17,17,00,14.40
2018,10,17,17,01,14.40
2018,10,17,17,02,14.40
2018,10,17,17,03,14.40
2018,10,17,17,04,14.40
2018,10,17,17,05,14.40
2018,10,17,17,06,14.40
2018,10,17,17,07,14.40
2018,10,17,17,08,14.40
2018,10,17,17,09,14.40
2018,10,17,17,10,14.40
2018,10,17,17,11,14.40
2018,10,17,17,12,14.40
2018,10,17,17,13,14.40
2018,10,17,17,14,14.40
2018,10,17,17,15,14.40
2018,10,17,17,16,14.50
2018,10,17,17,17,14.50
2018,10,17,17,18,14.50
2018,10,17,17,19,14.50
2018,10,17,17,20,14.50
2018,10,17,17,21,14.50
2018,10,17,17,22,14.50
2018,10,17,17,23,14.50
2018,10,17,17,24,14.50
2018,10,17,17,25,14.40
2018,10,17,17,26,14.40
2018,10,17,17,27,14.40
2018,10,17,17,28,14.40
2018,10,17,17,29,14.30
2018,10,17,17,30,14.30
2018,10,17,17,31,14.30
2018,10,17,17,32,14.30
2018,10,17,17,33,14.30
2018,10,17,17,34,14.30
2018,10,17,17,35,14.30
2018,10,17,17,36,14.30
2018,10,17,17,37,14.30
2018,10,17,17,38,14.30
2018,10,17,17,39,14.30
2018,10,17,17,40,14.30
2018,10,17,17,41,14.30
2018,10,17,17,42,14.20
2018,10,17,17,43,14.20
2018,10,17,17,44,14.20
2018,10,17,17,45,14.20
2018,10,17,17,46,14.20
2018,10,17,17,47,14.20
2018,10,17,17,48,14.20
2018,10,17,17,49,14.20
2018,10,17,17,50,14.10
2018,10,17,17,51,14.10
2018,10,17,17,52,14.10
2018,10,17,17,53,14.00
2018,10,17,17,54,14.00
2018,10,17,17,55,13.90
2018,10,17,17,56,13.90
2018,10,17,17,57,13.90
2018,10,17,17,58,13.90
2018,10,17,17,59,13.80
2018,10,17,18,00,13.80
2018,10,17,18,01,13.80
2018,10,17,18,02,13.80
2018,10,17,18,03,13.80
2018,10,17,18,04,13.80
2018,10,17,18,05,13.80
2018,10,17,18,06,13.80
2018,10,17,18,07,13.70
2018,10,17,18,08,13.70
2018,10,17,18,09,13.70
2018,10,17,18,10,13.70
2018,10,17,18,11,13.70
2018,10,17,18,12,13.70
2018,10,17,18,13,13.70
2018,10,17,18,14,13.70
2018,10,17,18,15,13.70
2018,10,17,18,16,13.70
2018,10,17,18,17,13.70
2018,10,17,18,18,13.70
2018,10,17,18,19,13.60
2018,10,17,18,20,13.60
2018,10,17,18,21,13.60
2018,10,17,18,22,13.60
2018,10,17,18,23,13.50
2018,10,17,18,24,13.50
2018,10,17,18,25,13.40
2018,10,17,18,26,13.40
2018,10,17,18,27,13.40
2018,10,17,18,28,13.40
2018,10,17,18,29,13.40
2018,10,17,18,30,13.30
2018,10,17,18,31,13.30
2018,10,17,18,32,13.30
2018,10,17,18,33,13.30
2018,10,17,18,34,13.30
2018,10,17,18,35,13.20
2018,10,17,18,36,13.20
2018,10,17,18,37,13.20
2018,10,17,18,38,13.20
2018,10,17,18,39,13.10
2018,10,17,18,40,13.10
2018,10,17,18,41,13.10
2018,10,17,18,42,13.00
2018,10,17,18,43,13.00
2018,10,17,18,44,12.90
2018,10,17,18,45,12.90
2018,10,17,18,46,12.90
2018,10,17,18,47,12.80
2018,10,17,18,48,12.80
2018,10,17,18,49,12.80
2018,10,17,18,50,12.80
2018,10,17,18,51,12.80
2018,10,17,18,52,12.70
2018,10,17,18,53,12.70
2018,10,17,18,54,12.70
2018,10,17,18,55,12.70
2018,10,17,18,56,12.60
2018,10,17,18,57,12.60
2018,10,17,18,58,12.50
2018,10,17,18,59,12.50
2018,10,17,19,00,12.50
2018,10,17,19,01,12.40
2018,10,17,19,02,12.30
2018,10,17,19,03,12.30
2018,10,17,19,04,12.30
2018,10,17,19,05,12.20
2018,10,17,19,06,12.20
2018,10,17,19,07,12.10
2018,10,17,19,08,12.10
2018,10,17,19,09,12.10
2018,10,17,19,10,12.00
2018,10,17,19,11,12.00
2018,10,17,19,12,11.90
2018,10,17,19,13,11.90
2018,10,17,19,14,11.90
2018,10,17,19,15,11.80
2018,10,17,19,16,11.80
2018,10,17,19,17,11.80
2018,10,17,19,18,11.80
2018,10,17,19,19,11.80
2018,10,17,19,20,11.80
2018,10,17,19,21,11.80
2018,10,17,19,22,11.70
2018,10,17,19,23,11.70
2018,10,17,19,24,11.70
2018,10,17,19,25,11.70
2018,10,17,19,26,11.70
2018,10,17,19,27,11.70
2018,10,17,19,28,11.70
2018,10,17,19,29,11.70
2018,10,17,19,30,11.70
2018,10,17,19,31,11.60
2018,10,17,19,32,11.60
2018,10,17,19,33,11.60
2018,10,17,19,34,11.60
2018,10,17,19,35,11.60
2018,10,17,19,36,11.60
2018,10,17,19,37,11.50
2018,10,17,19,38,11.50
2018,10,17,19,39,11.50
2018,10,17,19,40,11.40
2018,10,17,19,41,11.40
2018,10,17,19,42,11.40
2018,10,17,19,43,11.30
2018,10,17,19,44,11.30
2018,10,17,19,45,11.30
2018,10,17,19,46,11.30
2018,10,17,19,47,11.20
2018,10,17,19,48,11.20
2018,10,17,19,49,11.20
2018,10,17,19,50,11.20
2018,10,17,19,51,11.20
2018,10,17,19,52,11.10
2018,10,17,19,53,11.10
2018,10,17,19,54,11.10
2018,10,17,19,55,11.10
2018,10,17,19,56,11.10
2018,10,17,19,57,11.10
2018,10,17,19,58,11.10
2018,10,17,19,59,11.10
2018,10,17,20,00,11.10
2018,10,17,20,01,11.00
2018,10,17,20,02,11.00
2018,10,17,20,03,11.00
2018,10,17,20,04,10.90
2018,10,17,20,05,10.90
2018,10,17,20,06,10.90
2018,10,17,20,07,10.90
2018,10,17,20,08,10.90
2018,10,17,20,09,10.80
2018,10,17,20,10,10.80
2018,10,17,20,11,10.80
2018,10,17,20,12,10.80
2018,10,17,20,13,10.80
2018,10,17,20,14,10.80
2018,10,17,20,15,10.80
2018,10,17,20,16,10.80
2018,10,17,20,17,10.80
2018,10,17,20,18,10.70
2018,10,17,20,19,10.70
2018,10,17,20,20,10.70
2018,10,17,20,21,10.70
2018,10,17,20,22,10.70
2018,10,17,20,23,10.70
2018,10,17,20,24,10.70
2018,10,17,20,25,10.70
2018,10,17,20,26,10.70
2018,10,17,20,27,10.70
2018,10,17,20,28,10.70
2018,10,17,20,29,10.70
2018,10,17,20,30,10.70
2018,10,17,20,31,10.70
2018,10,17,20,32,10.60
2018,10,17,20,33,10.60
2018,10,17,20,34,10.60
2018,10,17,20,35,10.60
2018,10,17,20,36,10.60
2018,10,17,20,37,10.60
2018,10,17,20,38,10.60
2018,10,17,20,39,10.60
2018,10,17,20,40,10.60
2018,10,17,20,41,10.50
2018,10,17,20,42,10.50
2018,10,17,20,43,10.50
2018,10,17,20,44,10.50
2018,10,17,20,45,10.40
2018,10,17,20,46,10.40
2018,10,17,20,47,10.40
2018,10,17,20,48,10.40
2018,10,17,20,49,10.40
2018,10,17,20,50,10.40
2018,10,17,20,51,10.40
2018,10,17,20,52,10.40
2018,10,17,20,53,10.30
2018,10,17,20,54,10.30
2018,10,17,20,55,10.30
2018,10,17,20,56,10.30
2018,10,17,20,57,10.30
2018,10,17,20,58,10.30
2018,10,17,20,59,10.30
2018,10,17,21,00,10.30
2018,10,17,21,01,10.30
2018,10,17,21,02,10.30
2018,10,17,21,03,10.20
2018,10,17,21,04,10.20
2018,10,17,21,05,10.20
2018,10,17,21,06,10.20
2018,10,17,21,07,10.20
2018,10,17,21,08,10.20
2018,10,17,21,09,10.10
2018,10,17,21,10,10.10
2018,10,17,21,11,10.10
2018,10,17,21,12,10.10
2018,10,17,21,13,10.10